Vorticity
7 8 9 10 10 9 9 10 10 11 12 13 13 13 13 12 13 14 14 14 14 14 15 14 15 16 16 18 20 19 20 18 17 20 17 7 1 4 11 13 13 14 10 10 19 19 12 12 13 10 10 12 13 13 12 9 8 11 18 23 21 17 14
6 8 10 10 10 9 10 11 11 12 13 13 13 12 12 12 12 13 13 13 14 13 14 15 14 15 15 17 19 20 21 19 15 17 20 15 5 -1 5 13 17 17 15 10 12 16 13 10 12 11 9 11 11 12 16 14 7 1 2 9 15 16 17
7 9 9 10 10 10 10 11 12 13 13 13 12 12 12 12 11 12 12 12 14 13 13 14 14 14 15 16 17 18 21 21 17 14 14 17 16 9 4 8 14 17 19 15 10 12 15 13 12 11 10 10 9 7 8 13 15 13 8 6 6 7 9
8 9 10 10 11 11 11 12 13 13 13 12 12 11 10 11 11 11 13 13 14 14 13 13 13 14 15 16 17 17 18 19 19 16 14 15 18 17 13 9 8 9 14 16 12 10 14 15 13 15 16 14 14 12 9 7 10 13 15 15 14 13 11
8 9 11 11 11 12 12 13 13 13 13 11 11 10 9 10 10 12 14 15 15 14 13 12 12 13 14 16 17 18 18 17 17 16 16 17 18 19 17 13 9 7 9 13 14 11 15 19 15 13 17 17 13 12 11 10 8 7 10 12 13 13 13
9 10 11 12 12 13 12 13 13 12 11 10 10 10 9 9 11 13 16 17 16 14 12 12 12 12 13 14 16 17 19 19 18 17 15 16 19 21 19 13 8 6 7 13 15 11 14 24 21 11 8 8 6 5 8 10 10 8 7 8 9 10 10
10 10 12 12 12 13 12 12 11 10 10 10 9 9 9 10 12 15 17 17 15 13 12 12 12 13 13 14 14 15 16 18 19 19 17 14 15 20 20 15 11 10 9 12 17 16 14 20 23 13 6 6 8 11 11 9 10 11 10 8 7 9 11
11 12 12 13 12 12 12 11 10 10 9 9 9 9 9 11 14 16 18 17 15 13 12 11 12 13 13 14 14 13 12 14 16 18 20 18 14 15 17 15 14 17 17 14 15 17 15 16 17 12 8 11 14 11 5 2 4 9 12 11 10 11 13
11 12 12 12 12 12 11 10 9 9 9 9 9 9 10 12 15 17 18 17 16 13 12 12 12 12 13 13 14 14 12 11 12 14 18 20 18 15 14 11 9 12 17 18 17 16 13 13 15 12 8 9 10 6 2 2 3 5 6 8 8 9 10
12 13 12 11 11 11 10 10 9 9 10 9 9 9 11 13 15 17 17 17 16 14 12 11 11 12 13 14 14 14 14 13 12 12 14 16 19 18 14 10 7 5 8 12 16 17 15 13 14 14 12 9 6 5 3 4 6 8 8 7 7 7 7
12 12 11 11 11 10 9 10 10 9 9 9 9 10 11 14 15 16 17 16 15 14 12 12 12 11 12 13 13 14 14 14 14 14 14 14 15 18 16 12 8 5 4 6 10 14 16 16 14 12 12 11 9 7 4 3 5 8 9 8 7 7 7
11 11 11 10 10 10 10 10 10 10 10 10 10 12 13 15 16 17 17 16 15 14 13 12 11 11 11 13 13 13 12 13 14 15 16 16 15 15 17 16 14 9 6 4 5 8 12 17 19 15 11 10 10 9 6 4 4 5 7 8 7 7 8
12 11 11 11 10 10 11 11 10 9 9 9 11 13 14 15 16 17 16 15 14 14 14 13 11 11 11 12 13 14 13 12 11 11 14 17 17 15 15 16 17 16 11 6 4 3 6 11 17 21 19 14 10 8 6 5 5 5 4 4 4 4 5
11 10 10 10 9 10 10 10 9 8 9 10 12 14 15 16 16 16 16 15 14 13 13 13 13 12 11 12 12 14 15 14 11 9 10 13 16 16 16 15 16 18 18 13 7 3 2 3 8 14 20 23 20 16 11 6 3 2 2 2 4 4 4
10 9 10 9 10 11 10 9 9 9 10 12 14 15 16 17 17 16 16 16 15 14 14 13 13 13 12 13 13 14 14 14 14 11 9 9 11 14 15 15 15 15 17 18 16 11 5 1 1 3 6 13 20 23 23 19 14 9 6 3 3 4 5
9 10 10 11 11 11 11 11 11 12 13 14 16 17 17 18 17 16 16 16 14 14 13 13 13 13 12 13 14 14 14 14 15 14 12 10 9 11 13 15 15 15 14 16 17 18 15 9 5 3 2 2 5 11 17 21 23 21 19 15 12 9 9
10 10 11 11 11 10 10 12 12 13 14 15 16 17 17 17 16 15 15 14 12 11 11 11 11 11 12 12 12 12 12 13 15 16 15 13 10 10 11 12 13 14 15 15 14 15 18 17 13 10 8 5 3 2 3 6 11 15 18 19 18 15 13
11 11 11 10 10 10 10 12 12 12 14 15 15 15 14 13 13 13 13 12 11 11 11 11 11 11 10 11 10 10 11 12 14 16 16 16 13 11 11 11 11 11 13 15 16 15 14 15 15 14 13 12 10 7 4 2 2 4 8 11 14 16 14
11 12 12 11 10 10 10 11 11 12 13 14 13 12 11 11 11 11 12 11 11 12 12 12 12 11 11 11 11 11 11 11 12 13 14 15 15 14 12 11 11 11 11 11 13 15 15 15 14 13 13 13 14 14 12 9 5 3 3 4 5 8 11
12 11 11 10 9 10 10 10 11 12 13 12 12 11 11 11 11 11 11 11 12 13 13 13 13 12 12 12 11 11 11 11 11 12 12 13 15 15 14 12 11 12 12 12 11 12 13 14 15 15 14 13 12 13 14 14 13 11 9 7 5 4 5
11 10 10 10 10 10 11 11 12 12 12 12 11 11 10 10 11 12 12 12 13 13 14 14 13 13 13 13 13 12 12 11 11 11 12 12 13 13 14 14 13 13 13 13 14 13 13 13 13 13 14 15 14 13 13 13 13 13 13 13 12 10 9
9 9 10 10 11 11 12 12 12 12 12 12 11 10 11 11 13 13 13 14 15 15 15 14 14 14 13 13 14 13 13 12 11 11 11 11 12 12 12 13 13 13 13 13 13 13 14 14 13 13 12 13 14 15 15 15 14 13 13 13 13 14 15
9 10 11 11 12 13 12 12 13 12 12 11 11 12 12 13 15 15 15 15 16 16 16 15 15 14 14 14 14 13 13 12 12 11 11 11 11 11 12 13 13 13 13 12 12 12 12 13 13 13 14 13 12 13 13 14 16 15 15 14 13 13 13
10 11 12 13 13 13 13 13 13 13 13 12 12 13 15 16 17 16 15 16 16 16 15 15 15 14 13 13 13 12 12 12 12 12 12 12 13 12 12 13 13 13 13 13 13 13 12 12 12 11 12 12 12 13 13 13 14 14 14 15 14 14 14
12 12 13 13 13 12 12 12 13 13 13 13 14 16 18 18 18 17 17 18 18 17 16 16 16 15 14 13 12 12 12 12 13 14 13 13 13 13 13 13 12 13 14 13 13 13 12 12 12 11 11 11 10 11 12 12 12 12 12 13 13 13 13
12 13 13 12 11 11 11 12 14 15 14 15 17 20 20 20 20 20 20 20 19 19 18 17 17 16 14 14 14 13 14 14 14 15 15 15 14 14 14 14 13 13 14 14 14 15 14 13 13 12 11 11 10 10 10 9 10 11 11 12 12 13 13
12 12 12 10 10 11 13 15 18 18 18 20 22 23 23 23 23 22 21 21 20 19 19 18 17 17 16 16 16 16 16 16 16 16 16 16 16 16 15 15 15 15 16 17 17 17 18 18 17 17 16 15 13 12 11 10 9 9 9 9 10 10 11
11 10 10 10 12 14 16 20 23 23 23 25 25 24 24 24 23 22 21 20 19 18 18 18 18 17 17 17 17 17 17 16 16 16 16 16 17 18 18 19 20 20 20 21 20 20 21 21 21 21 21 21 20 19 18 16 14 13 12 11 10 10 10
9 10 11 13 17 20 22 26 27 26 25 25 24 23 24 24 22 21 19 19 18 18 18 18 17 17 17 17 16 16 16 16 16 17 19 21 22 24 24 24 24 23 23 22 21 20 21 21 21 21 21 21 22 21 21 21 20 19 18 17 16 15 13
11 14 17 20 24 26 27 29 28 26 24 23 22 23 23 22 20 19 18 18 18 17 17 17 16 15 15 15 16 17 17 19 21 22 24 24 24 24 24 23 22 21 20 20 20 20 20 20 20 20 20 20 20 19 19 20 20 20 21 23 24 23 21
20 23 25 27 28 28 27 26 25 23 21 21 21 22 22 20 20 19 17 16 16 16 16 15 13 13 15 17 19 21 22 23 23 23 23 22 21 20 19 18 19 19 19 20 21 21 21 22 22 23 23 23 23 22 22 22 21 21 22 22 23 25 26
28 27 27 26 25 25 24 22 22 22 22 22 22 21 20 19 19 17 16 16 16 14 12 12 14 17 20 21 21 21 21 21 21 20 19 19 18 18 18 18 18 19 21 22 22 22 23 24 25 26 26 27 28 28 27 27 27 26 25 24 24 25 26
27 24 23 23 23 22 21 20 22 23 23 23 22 20 18 18 17 16 15 14 12 12 14 18 22 22 19 18 18 19 19 19 18 18 17 17 16 16 17 17 18 19 20 21 21 22 23 24 24 25 27 28 30 30 30 30 29 28 27 27 27 26 25
24 22 21 21 22 21 18 19 22 24 24 22 20 18 17 17 15 13 12 12 14 18 22 23 20 17 16 17 18 19 18 18 17 17 16 16 15 15 15 15 16 17 18 19 21 22 21 21 22 23 25 26 28 29 29 29 28 27 27 26 25 25 24
25 22 21 21 22 19 17 18 22 23 21 19 17 16 15 14 12 12 15 18 22 23 21 17 14 15 17 18 18 18 17 17 17 17 16 16 15 15 15 15 15 15 16 17 19 20 20 20 20 21 22 24 26 27 27 26 25 25 25 25 24 23 22
25 23 22 22 20 17 18 20 21 19 17 16 15 14 13 13 15 20 23 24 21 16 13 13 15 17 17 17 18 19 19 18 17 17 16 16 15 15 15 15 14 14 14 15 16 17 18 20 20 20 20 22 24 25 25 23 23 23 22 21 21 20 20
Height
5532 5528 5524 5521 5516 5512 5508 5504 5500 5497 5493 5489 5486 5482 5479 5475 5472 5468 5465 5462 5458 5456 5453 5450 5447 5444 5442 5439 5437 5436 5434 5434 5434 5434 5434 5434 5434 5435 5435 5435 5437 5439 5442 5443 5444 5444 5445 5446 5447 5448 5449 5451 5453 5454 5457 5459 5460 5462 5463 5465 5467 5469 5471
5522 5518 5514 5510 5506 5502 5498 5494 5490 5487 5483 5480 5476 5472 5469 5465 5461 5457 5454 5451 5448 5445 5442 5439 5437 5434 5432 5430 5428 5426 5425 5424 5424 5423 5424 5424 5425 5425 5425 5426 5427 5429 5432 5434 5435 5436 5436 5437 5438 5440 5441 5443 5444 5445 5447 5449 5451 5453 5454 5456 5458 5460 5461
5511 5508 5504 5500 5495 5492 5488 5484 5481 5477 5474 5470 5466 5462 5459 5455 5452 5448 5444 5441 5438 5435 5432 5429 5427 5424 5422 5420 5418 5417 5415 5415 5414 5414 5414 5414 5415 5416 5416 5417 5418 5420 5422 5424 5426 5427 5428 5428 5429 5431 5433 5434 5435 5436 5438 5440 5441 5443 5445 5447 5449 5451 5452
5502 5498 5494 5490 5485 5482 5478 5474 5471 5467 5464 5461 5457 5454 5449 5445 5442 5439 5435 5432 5428 5425 5423 5420 5417 5415 5412 5410 5408 5407 5406 5405 5404 5404 5404 5404 5405 5406 5407 5408 5409 5410 5412 5414 5416 5417 5418 5420 5421 5422 5424 5425 5426 5427 5429 5431 5433 5434 5437 5438 5440 5442 5443
5492 5488 5484 5480 5476 5472 5468 5464 5461 5457 5454 5451 5448 5444 5440 5436 5432 5429 5425 5422 5419 5416 5413 5411 5408 5405 5403 5401 5399 5398 5396 5395 5395 5394 5394 5395 5395 5396 5397 5399 5399 5401 5402 5404 5406 5408 5409 5410 5411 5413 5415 5416 5417 5419 5420 5422 5424 5425 5428 5429 5431 5433 5435
5481 5477 5473 5469 5465 5461 5457 5453 5450 5447 5444 5441 5438 5434 5431 5427 5423 5419 5416 5412 5409 5407 5404 5402 5399 5396 5394 5392 5390 5389 5387 5386 5385 5385 5385 5385 5385 5386 5387 5389 5390 5391 5393 5394 5397 5398 5400 5401 5402 5403 5405 5407 5409 5411 5412 5413 5415 5416 5418 5420 5422 5424 5426
5470 5466 5462 5458 5453 5450 5446 5443 5439 5436 5433 5430 5427 5424 5420 5417 5413 5410 5406 5402 5399 5397 5395 5392 5390 5387 5385 5383 5381 5379 5378 5377 5376 5376 5376 5375 5376 5377 5378 5379 5380 5381 5383 5385 5386 5388 5390 5392 5393 5394 5396 5398 5400 5402 5404 5405 5407 5408 5409 5411 5413 5415 5416
5459 5454 5450 5446 5443 5439 5436 5433 5430 5426 5423 5420 5417 5414 5411 5407 5403 5399 5396 5392 5389 5387 5385 5383 5381 5378 5376 5374 5372 5371 5369 5368 5367 5367 5367 5366 5367 5368 5369 5370 5371 5372 5373 5375 5377 5378 5380 5382 5383 5385 5387 5388 5390 5392 5394 5396 5398 5399 5400 5402 5404 5405 5407
5448 5444 5440 5436 5432 5429 5425 5422 5419 5416 5413 5410 5406 5404 5401 5397 5393 5390 5386 5383 5379 5377 5374 5373 5371 5369 5367 5365 5363 5362 5360 5359 5358 5358 5358 5357 5358 5359 5360 5361 5362 5363 5363 5365 5367 5368 5370 5372 5374 5376 5377 5379 5381 5383 5385 5387 5389 5390 5392 5393 5395 5397 5399
5437 5433 5429 5426 5422 5418 5414 5411 5408 5405 5403 5400 5396 5393 5390 5387 5383 5380 5376 5373 5370 5367 5364 5362 5361 5359 5357 5355 5354 5353 5352 5350 5349 5349 5349 5349 5349 5349 5350 5352 5353 5353 5354 5355 5357 5358 5360 5362 5364 5366 5368 5369 5371 5373 5375 5377 5379 5381 5383 5384 5385 5387 5390
5426 5422 5418 5416 5412 5408 5404 5400 5396 5394 5392 5389 5386 5383 5380 5377 5374 5370 5366 5363 5360 5358 5354 5352 5350 5348 5347 5345 5344 5343 5342 5341 5340 5339 5339 5339 5339 5340 5341 5342 5343 5344 5345 5346 5347 5349 5350 5352 5354 5356 5358 5359 5361 5363 5365 5367 5369 5371 5373 5375 5376 5378 5381
5415 5412 5409 5406 5403 5399 5395 5391 5386 5383 5381 5378 5374 5371 5369 5367 5364 5361 5357 5352 5349 5347 5345 5343 5340 5338 5336 5335 5334 5334 5333 5332 5331 5330 5330 5330 5330 5330 5331 5331 5333 5334 5335 5336 5337 5339 5340 5341 5344 5346 5347 5349 5351 5353 5355 5357 5359 5361 5363 5365 5368 5369 5371
5405 5402 5398 5395 5392 5389 5385 5380 5375 5372 5369 5367 5363 5360 5357 5356 5354 5351 5348 5343 5339 5336 5334 5333 5331 5329 5326 5324 5323 5323 5322 5322 5322 5321 5321 5320 5320 5320 5320 5321 5322 5324 5325 5326 5327 5328 5330 5332 5333 5335 5337 5339 5341 5343 5344 5346 5348 5351 5353 5355 5358 5360 5362
5392 5389 5385 5382 5379 5377 5373 5368 5363 5360 5358 5355 5352 5349 5346 5345 5343 5341 5338 5335 5330 5326 5324 5322 5320 5319 5317 5314 5312 5312 5312 5312 5312 5311 5311 5311 5311 5310 5310 5311 5312 5312 5314 5315 5317 5318 5320 5321 5323 5325 5327 5328 5330 5331 5333 5336 5338 5340 5343 5345 5348 5350 5353
5380 5377 5373 5369 5366 5365 5362 5357 5352 5349 5346 5344 5341 5338 5336 5334 5333 5330 5328 5325 5321 5317 5314 5311 5310 5309 5307 5304 5302 5301 5301 5301 5301 5302 5301 5301 5301 5300 5300 5300 5301 5301 5302 5304 5306 5308 5310 5311 5313 5314 5316 5317 5318 5320 5323 5325 5328 5330 5332 5334 5337 5340 5342
5371 5368 5364 5360 5356 5353 5351 5346 5340 5336 5334 5331 5329 5326 5325 5324 5322 5320 5318 5315 5311 5307 5304 5302 5300 5298 5297 5295 5292 5290 5290 5291 5291 5291 5291 5291 5290 5290 5290 5290 5289 5290 5292 5293 5295 5297 5299 5301 5302 5303 5305 5306 5307 5309 5312 5314 5316 5318 5320 5322 5326 5329 5331
5363 5359 5355 5351 5346 5342 5340 5336 5329 5324 5321 5319 5315 5314 5313 5312 5310 5309 5307 5305 5301 5297 5294 5291 5289 5288 5286 5285 5282 5280 5279 5280 5281 5281 5281 5280 5280 5280 5280 5279 5278 5279 5281 5282 5284 5286 5288 5289 5291 5291 5292 5294 5295 5298 5301 5302 5304 5306 5308 5311 5315 5318 5320
5354 5350 5345 5341 5337 5332 5329 5325 5320 5313 5310 5306 5303 5301 5300 5299 5298 5297 5296 5293 5290 5287 5284 5281 5278 5276 5275 5274 5272 5270 5269 5269 5269 5270 5270 5270 5269 5269 5269 5267 5266 5268 5270 5271 5273 5274 5275 5277 5279 5280 5281 5282 5283 5285 5288 5290 5292 5294 5297 5300 5304 5307 5309
5343 5339 5335 5330 5326 5321 5317 5314 5310 5304 5299 5296 5292 5289 5287 5286 5285 5285 5284 5282 5279 5277 5273 5270 5267 5265 5264 5263 5262 5260 5258 5258 5257 5258 5258 5258 5259 5259 5259 5256 5256 5257 5259 5259 5261 5262 5264 5265 5266 5268 5269 5270 5271 5272 5274 5277 5280 5282 5284 5288 5292 5295 5297
5330 5327 5323 5318 5313 5309 5305 5301 5298 5294 5289 5286 5282 5278 5275 5274 5273 5272 5271 5270 5268 5266 5263 5259 5256 5253 5252 5252 5251 5250 5248 5246 5246 5246 5246 5247 5247 5248 5247 5245 5245 5247 5247 5248 5249 5250 5252 5253 5254 5255 5257 5257 5258 5260 5261 5264 5267 5269 5272 5275 5279 5282 5285
5317 5314 5311 5306 5301 5297 5292 5288 5285 5282 5278 5274 5271 5267 5263 5262 5260 5259 5258 5258 5256 5254 5252 5248 5244 5242 5241 5240 5240 5238 5237 5236 5234 5234 5234 5235 5235 5236 5235 5234 5235 5236 5236 5237 5238 5238 5240 5241 5242 5243 5244 5245 5246 5247 5249 5251 5254 5257 5260 5263 5266 5269 5272
5305 5302 5299 5294 5289 5284 5280 5275 5271 5269 5265 5262 5259 5255 5251 5249 5248 5246 5245 5245 5244 5241 5239 5236 5233 5231 5229 5228 5227 5226 5225 5224 5223 5222 5222 5222 5222 5223 5223 5223 5224 5225 5225 5225 5226 5227 5228 5228 5229 5230 5231 5232 5234 5235 5236 5239 5242 5245 5248 5251 5253 5256 5258
5292 5289 5286 5282 5277 5272 5267 5262 5258 5255 5251 5248 5246 5243 5240 5237 5235 5233 5231 5231 5231 5229 5226 5224 5222 5219 5217 5216 5215 5214 5213 5212 5212 5210 5210 5210 5210 5210 5211 5211 5212 5212 5212 5213 5214 5215 5216 5216 5216 5217 5218 5219 5221 5222 5224 5227 5230 5232 5235 5237 5240 5242 5245
5280 5276 5273 5269 5265 5260 5254 5249 5244 5240 5236 5234 5232 5230 5227 5224 5221 5220 5218 5218 5217 5216 5214 5212 5210 5208 5206 5204 5202 5202 5201 5200 5199 5199 5198 5198 5198 5198 5199 5199 5200 5200 5200 5201 5202 5202 5203 5203 5203 5204 5205 5206 5207 5210 5213 5215 5217 5218 5220 5223 5226 5229 5232
5267 5263 5259 5256 5252 5248 5243 5237 5231 5226 5222 5220 5218 5217 5214 5211 5209 5206 5205 5204 5204 5202 5201 5199 5197 5195 5194 5192 5190 5189 5189 5188 5188 5187 5186 5186 5186 5186 5186 5187 5187 5188 5188 5189 5189 5189 5190 5190 5190 5190 5192 5194 5195 5197 5200 5201 5203 5205 5207 5210 5213 5215 5218
5254 5250 5246 5242 5238 5235 5230 5225 5219 5213 5209 5207 5205 5203 5200 5198 5196 5193 5192 5191 5190 5189 5188 5187 5185 5183 5181 5180 5178 5178 5177 5177 5176 5175 5175 5174 5173 5174 5174 5174 5175 5175 5176 5176 5176 5176 5176 5176 5176 5177 5179 5181 5182 5184 5185 5186 5189 5191 5194 5196 5199 5202 5205
5241 5236 5232 5228 5225 5221 5217 5212 5206 5201 5197 5194 5192 5191 5188 5185 5183 5181 5179 5178 5177 5176 5176 5175 5173 5171 5169 5168 5167 5166 5165 5165 5164 5164 5163 5162 5162 5161 5162 5162 5162 5163 5163 5163 5163 5163 5163 5163 5163 5165 5166 5167 5169 5170 5171 5172 5175 5177 5180 5182 5185 5189 5192
5228 5223 5217 5213 5210 5206 5203 5200 5194 5187 5184 5182 5180 5179 5177 5174 5171 5169 5168 5167 5166 5165 5164 5164 5162 5160 5158 5157 5156 5155 5155 5154 5153 5152 5152 5151 5150 5150 5149 5149 5150 5150 5150 5150 5150 5151 5151 5151 5151 5152 5153 5154 5156 5157 5157 5158 5161 5164 5166 5168 5171 5176 5179
5214 5209 5204 5200 5197 5192 5189 5187 5182 5175 5172 5170 5169 5168 5166 5164 5161 5159 5158 5156 5155 5155 5154 5153 5151 5149 5147 5146 5146 5145 5144 5143 5142 5142 5141 5140 5139 5138 5138 5138 5138 5139 5138 5138 5139 5140 5140 5139 5140 5141 5141 5142 5143 5143 5143 5144 5147 5150 5152 5154 5157 5162 5165
5199 5195 5190 5187 5184 5179 5176 5174 5171 5166 5162 5159 5158 5156 5155 5154 5152 5150 5148 5146 5146 5145 5144 5142 5140 5138 5137 5136 5136 5135 5134 5133 5132 5132 5131 5130 5129 5129 5128 5128 5128 5128 5128 5128 5129 5129 5129 5128 5129 5129 5129 5130 5131 5130 5130 5132 5134 5136 5138 5141 5144 5147 5150
5184 5179 5174 5172 5170 5168 5164 5161 5159 5155 5152 5150 5148 5146 5145 5144 5143 5141 5139 5137 5136 5136 5135 5133 5131 5129 5128 5127 5126 5125 5124 5123 5123 5122 5122 5121 5121 5120 5120 5119 5119 5119 5119 5119 5119 5119 5118 5117 5117 5117 5117 5118 5119 5119 5119 5120 5122 5124 5126 5128 5131 5134 5136
5170 5166 5161 5158 5156 5155 5153 5150 5147 5145 5143 5141 5139 5137 5136 5135 5134 5132 5131 5129 5128 5127 5126 5124 5122 5121 5119 5118 5117 5117 5116 5115 5115 5114 5113 5113 5113 5112 5111 5111 5111 5111 5111 5110 5110 5109 5108 5107 5107 5106 5106 5107 5107 5108 5108 5109 5110 5113 5115 5117 5119 5122 5124
5157 5154 5151 5148 5144 5142 5141 5139 5137 5136 5134 5132 5130 5128 5127 5126 5125 5124 5122 5120 5119 5119 5117 5115 5114 5113 5112 5111 5110 5109 5108 5108 5107 5107 5106 5106 5106 5105 5104 5103 5104 5104 5103 5102 5101 5100 5100 5099 5098 5097 5097 5097 5097 5098 5098 5099 5100 5102 5104 5107 5109 5112 5114
5146 5141 5139 5137 5134 5131 5130 5129 5128 5127 5126 5124 5122 5120 5119 5118 5117 5116 5113 5111 5111 5111 5109 5108 5107 5106 5105 5104 5103 5102 5101 5101 5100 5100 5100 5099 5099 5098 5097 5097 5096 5096 5095 5094 5093 5093 5092 5091 5090 5089 5089 5089 5089 5089 5090 5090 5091 5093 5095 5098 5100 5102 5104
5140 5132 5127 5126 5124 5122 5120 5119 5118 5118 5117 5116 5114 5112 5111 5110 5110 5108 5105 5103 5103 5103 5102 5101 5100 5099 5098 5098 5097 5096 5095 5094 5094 5093 5093 5092 5092 5092 5091 5090 5090 5089 5089 5088 5087 5086 5085 5084 5083 5083 5083 5082 5082 5082 5083 5084 5084 5086 5088 5090 5093 5095 5097
5133 5126 5120 5116 5113 5112 5111 5110 5109 5109 5109 5108 5106 5105 5103 5103 5102 5100 5098 5096 5096 5095 5095 5095 5094 5093 5092 5091 5091 5090 5089 5088 5088 5087 5087 5086 5086 5086 5085 5085 5084 5083 5083 5082 5081 5080 5079 5078 5078 5077 5077 5077 5077 5077 5078 5078 5079 5080 5082 5084 5086 5088 5090